date,time,DOY,Ta_1_1_1,RH_1_1_1,LWin_1_1_1,LWout_1_1_1,SWin_1_1_1,SWout_1_1_1,PPFD_1_1_1,SWC_1_1_1,Ts_1_1_1
[yyyy-mm-dd],[HH:MM],[ddd.ddd],[K],[%],[W+1m-2],[W+1m-2],[W+1m-2],[W+1m-2],[µmol+1m-2s-1],[m+3m-3],[K]
2013-01-13,00:30,13.020,261.88766666666675,76.416666666666671,-2.0913333333333335,-9999.0,-0.26533333333333331,-1.0056666666666667,3.66666666666666703E-003,-9999.0,279.90999999999991
2013-01-13,01:00,13.041,261.84433333333334,77.058666666666653,-2.2566666666666668,-9999.0,-0.25700000000000001,-1.0046666666666666,6.66666666666666623E-003,-9999.0,279.90999999999991
2013-01-13,01:30,13.062,261.72599999999994,77.948666666666682,-2.1470000000000002,-9999.0,-0.29933333333333328,-0.97833333333333339,1.00000000000000019E-002,-9999.0,279.90999999999991
2013-01-13,02:00,13.083,261.70733333333334,77.928000000000011,-2.3976666666666664,-9999.0,-0.25833333333333325,-1.0649999999999999,1.06666666666666680E-002,-9999.0,279.90999999999991
2013-01-13,02:30,13.104,261.76333333333338,77.410666666666643,-3.2790000000000004,-9999.0,-0.37566666666666676,-1.2870000000000001,1.46666666666666699E-002,-9999.0,279.90999999999991
2013-01-13,03:00,13.124,261.67133333333334,76.252666666666670,-2.5963333333333334,-9999.0,-0.39533333333333326,-1.1479999999999999,4.00000000000000008E-003,-9999.0,279.90999999999991
2013-01-13,03:30,13.145,261.62566666666669,73.935333333333347,-2.5180000000000002,-9999.0,-0.29333333333333333,-1.0760000000000003,1.16666666666666672E-002,-9999.0,279.90999999999991
2013-01-13,04:00,13.166,261.57633333333342,73.041666666666643,-2.6940000000000000,-9999.0,-0.29399999999999998,-1.1186666666666665,1.26666666666666698E-002,-9999.0,279.90999999999991
2013-01-13,04:30,13.187,261.45433333333335,72.893000000000015,-2.4440000000000004,-9999.0,-0.33600000000000002,-1.0993333333333333,1.63333333333333351E-002,-9999.0,279.90999999999991
2013-01-13,05:00,13.208,261.34200000000004,75.052000000000007,-2.2799999999999998,-9999.0,-0.24700000000000005,-0.96633333333333349,1.33333333333333359E-002,-9999.0,279.90999999999991
2013-01-13,05:30,13.229,261.24599999999998,75.611333333333334,-2.2329999999999997,-9999.0,-0.25833333333333336,-0.97666666666666679,1.23333333333333333E-002,-9999.0,279.90999999999991
2013-01-13,06:00,13.249,261.15699999999998,72.195999999999998,-2.9306666666666663,-9999.0,-0.26533333333333337,-1.3333333333333333,1.30000000000000011E-002,-9999.0,279.90999999999991
2013-01-13,06:30,13.270,261.09333333333342,71.028666666666666,-2.8293333333333339,-9999.0,-0.25933333333333330,-1.3546666666666669,8.66666666666666627E-003,-9999.0,279.90999999999991
2013-01-13,07:00,13.291,261.03933333333339,71.378999999999991,-2.4436666666666671,-9999.0,-0.22833333333333333,-1.1500000000000001,1.23333333333333368E-002,-9999.0,279.90999999999991
2013-01-13,07:30,13.312,260.97066666666666,71.863333333333330,-2.8426666666666667,-9999.0,-4.83333333333333254E-002,-1.3616666666666668,0.85933333333333328,-9999.0,279.90999999999991
2013-01-13,08:00,13.333,260.78300000000002,71.576666666666654,-3.6949999999999998,-9999.0,1.4006666666666667,4.0366666666666671,17.848666666666666,-9999.0,279.90999999999991
2013-01-13,08:30,13.354,260.72366666666670,71.032999999999987,-3.6349999999999993,-9999.0,5.4993333333333334,30.065000000000001,68.549666666666681,-9999.0,279.90999999999991
2013-01-13,09:00,13.374,260.79066666666660,71.125666666666660,-3.6593333333333322,-9999.0,16.360666666666670,98.599000000000004,184.24666666666670,-9999.0,279.90999999999991
2013-01-13,09:30,13.395,260.96033333333338,71.083666666666673,-2.9526666666666666,-9999.0,21.428666666666672,132.17333333333335,254.24633333333333,-9999.0,279.90999999999991
2013-01-13,10:00,13.416,261.00366666666662,69.634000000000000,-2.8813333333333326,-9999.0,26.119333333333326,164.27200000000002,318.35699999999997,-9999.0,279.90999999999991
2013-01-13,10:30,13.437,261.03266666666667,66.602333333333334,-1.6303333333333334,-9999.0,26.027999999999999,159.43400000000003,315.81866666666673,-9999.0,279.90999999999991
2013-01-13,11:00,13.458,261.19466666666665,65.280000000000001,-1.0880000000000001,-9999.0,28.204999999999998,167.84900000000002,332.15433333333328,-9999.0,279.90999999999991
2013-01-13,11:30,13.479,261.22233333333338,65.401666666666657,-0.66866666666666663,-9999.0,31.008333333333329,183.76533333333333,362.91966666666656,-9999.0,279.90999999999991
2013-01-13,12:00,13.499,261.41133333333329,63.624000000000002,-1.0620000000000001,-9999.0,32.094000000000001,190.78233333333336,378.42100000000005,-9999.0,279.90999999999991
2013-01-13,12:30,13.520,261.59800000000007,62.000666666666667,-0.80666666666666664,-9999.0,31.092333333333336,184.25366666666665,365.33833333333325,-9999.0,279.90999999999991
2013-01-13,13:00,13.541,261.86800000000011,60.862666666666662,-1.2793333333333330,-9999.0,28.039333333333335,165.96299999999999,330.26233333333334,-9999.0,279.90999999999991
2013-01-13,13:30,13.562,262.10633333333340,59.462333333333341,-2.5436666666666667,-9999.0,21.699000000000002,129.58299999999997,262.14533333333338,-9999.0,279.90999999999991
2013-01-13,14:00,13.583,262.27666666666664,59.057666666666677,-2.9750000000000001,-9999.0,21.000666666666667,126.55733333333333,255.02366666666663,-9999.0,279.90999999999991
2013-01-13,14:30,13.604,262.28100000000006,59.517333333333326,-3.3793333333333329,-9999.0,15.024666666666667,91.097333333333353,185.79799999999997,-9999.0,279.90999999999991
2013-01-13,15:00,13.624,262.26833333333332,60.909999999999997,-3.6029999999999998,-9999.0,8.0356666666666676,49.597333333333346,104.51066666666669,-9999.0,279.90999999999991
2013-01-13,15:30,13.645,262.02500000000003,61.583333333333321,-2.8723333333333327,-9999.0,4.5936666666666666,28.503000000000000,61.434000000000005,-9999.0,279.90999999999991
2013-01-13,16:00,13.666,261.91966666666673,63.203333333333340,-2.9460000000000002,-9999.0,2.7199999999999998,16.939333333333330,37.616666666666660,-9999.0,279.90999999999991
2013-01-13,16:30,13.687,261.44233333333335,68.652666666666661,-2.6833333333333331,-9999.0,0.73533333333333328,5.7973333333333326,15.893000000000001,-9999.0,279.90999999999991
2013-01-13,17:00,13.708,261.11966666666672,72.719999999999999,-2.6396666666666677,-9999.0,-0.16866666666666666,-1.19999999999999517E-002,2.8306666666666667,-9999.0,279.90999999999991
2013-01-13,17:30,13.729,260.85300000000001,76.190333333333314,-2.1723333333333330,-9999.0,-0.25366666666666665,-0.99266666666666670,4.50000000000000122E-002,-9999.0,279.90999999999991
2013-01-13,18:00,13.749,260.44366666666673,76.069333333333333,-2.2570000000000001,-9999.0,-0.31833333333333325,-1.1153333333333333,9.66666666666666716E-003,-9999.0,279.90999999999991
2013-01-13,18:30,13.770,260.07366666666667,78.131666666666675,-2.4983333333333335,-9999.0,-0.19166666666666671,-1.2693333333333332,1.16666666666666689E-002,-9999.0,279.90999999999991
2013-01-13,19:00,13.791,259.66300000000001,78.981000000000023,-2.3446666666666665,-9999.0,-0.17266666666666669,-1.3016666666666667,1.46666666666666647E-002,-9999.0,279.90999999999991
2013-01-13,19:30,13.812,259.21166666666676,75.905333333333317,-1.9179999999999997,-9999.0,-0.23100000000000004,-0.96633333333333327,7.66666666666666798E-003,-9999.0,279.90999999999991
2013-01-13,20:00,13.833,258.94400000000002,75.078000000000003,-1.6433333333333338,-9999.0,-0.16933333333333336,-0.79700000000000004,1.40000000000000020E-002,-9999.0,279.90999999999991
2013-01-13,20:30,13.854,258.93133333333321,77.534666666666652,-1.9456666666666667,-9999.0,-0.13633333333333333,-0.85266666666666679,1.26666666666666664E-002,-9999.0,279.90999999999991
2013-01-13,21:00,13.874,258.95233333333340,78.511333333333354,-1.9430000000000001,-9999.0,-0.15133333333333335,-0.74333333333333340,1.16666666666666689E-002,-9999.0,279.90999999999991
2013-01-13,21:30,13.895,258.90333333333342,78.345000000000013,-2.0766666666666667,-9999.0,-0.14400000000000004,-0.88466666666666660,7.33333333333333233E-003,-9999.0,279.90999999999991
2013-01-13,22:00,13.916,258.60900000000004,77.470666666666659,-2.7693333333333330,-9999.0,-3.66666666666667094E-003,-1.6196666666666666,7.00000000000000101E-003,-9999.0,279.90999999999991
2013-01-13,22:30,13.937,258.20233333333340,77.366000000000014,-3.0720000000000005,-9999.0,0.14533333333333331,-2.0293333333333332,9.00000000000000105E-003,-9999.0,279.90999999999991
2013-01-13,23:00,13.958,258.08733333333333,77.939999999999998,-3.4786666666666664,-9999.0,0.33500000000000002,-2.2269999999999999,7.33333333333333406E-003,-9999.0,279.90999999999991
2013-01-13,23:30,13.979,258.06633333333338,78.233333333333334,-3.0686666666666675,-9999.0,0.24733333333333335,-1.7513333333333327,8.33333333333333322E-003,-9999.0,279.90999999999991
2013-01-14,00:00,14.000,257.99766666666665,78.368666666666684,-3.4410000000000003,-9999.0,0.29633333333333334,-2.1643333333333330,3.66666666666666660E-003,-9999.0,279.90999999999991
